| time (UTC) | temp F | wind direction | speed MPH | gust MPH | rain 1hr in | rain 24hr in | rain mn in | humidity % | barometer mb |
| 20260504231132 | 71 | 191 | 0.0 | 0.0 | 0.00 | 0.00 | 0.00 | 51 | 1006.4 |
| 20260504230629 | 71 | 19 | 6.0 | 8.0 | 0.00 | 0.00 | 0.00 | 51 | 1006.5 |
| 20260504230127 | 70 | 172 | 0.0 | 1.0 | 0.00 | 0.00 | 0.00 | 53 | 1006.4 |
| 20260504225625 | 70 | 215 | 1.0 | 2.0 | 0.00 | 0.00 | 0.00 | 55 | 1006.6 |
| 20260504225121 | 70 | 339 | 2.0 | 3.0 | 0.00 | 0.00 | 0.00 | 54 | 1006.5 |
| 20260504224618 | 70 | 24 | 1.0 | 3.0 | 0.00 | 0.00 | 0.00 | 53 | 1006.2 |
| 20260504224115 | 71 | 195 | 2.0 | 2.0 | 0.00 | 0.00 | 0.00 | 53 | 1006.5 |
| 20260504223612 | 71 | 235 | 0.0 | 0.0 | 0.00 | 0.00 | 0.00 | 53 | 1006.3 |
| 20260504223108 | 70 | 102 | 6.0 | 9.0 | 0.00 | 0.00 | 0.00 | 53 | 1006.4 |
| 20260504222605 | 70 | 110 | 0.0 | 0.0 | 0.00 | 0.00 | 0.00 | 53 | 1006.6 |
| 20260504222102 | 70 | 177 | 0.0 | 1.0 | 0.00 | 0.00 | 0.00 | 54 | 1006.4 |
| 20260504221559 | 71 | 99 | 3.0 | 3.0 | 0.00 | 0.00 | 0.00 | 51 | 1006.7 |
| 20260504221056 | 71 | 311 | 2.0 | 4.0 | 0.00 | 0.00 | 0.00 | 54 | 1006.7 |
| 20260504220552 | 70 | 122 | 2.0 | 4.0 | 0.00 | 0.00 | 0.00 | 53 | 1006.5 |
| 20260504220049 | 71 | 254 | 3.0 | 4.0 | 0.00 | 0.00 | 0.00 | 51 | 1006.8 |
| 20260504215546 | 71 | 54 | 1.0 | 1.0 | 0.00 | 0.00 | 0.00 | 51 | 1006.7 |
| 20260504215044 | 71 | 212 | 0.0 | 0.0 | 0.00 | 0.00 | 0.00 | 52 | 1006.6 |
| 20260504214539 | 72 | 180 | 6.0 | 7.0 | 0.00 | 0.00 | 0.00 | 50 | 1006.4 |
| 20260504214036 | 71 | 300 | 0.0 | 1.0 | 0.00 | 0.00 | 0.00 | 49 | 1006.3 |
| 20260504213532 | 70 | 221 | 0.0 | 1.0 | 0.00 | 0.00 | 0.00 | 53 | 1006.6 |
| 20260504213030 | 70 | 144 | 5.0 | 7.0 | 0.00 | 0.00 | 0.00 | 52 | 1006.3 |
| 20260504212525 | 70 | 223 | 0.0 | 1.0 | 0.00 | 0.00 | 0.00 | 54 | 1006.5 |
| 20260504212023 | 70 | 125 | 1.0 | 2.0 | 0.00 | 0.00 | 0.00 | 52 | 1006.4 |
| 20260504211520 | 70 | 347 | 2.0 | 3.0 | 0.00 | 0.00 | 0.00 | 53 | 1006.7 |
| 20260504211017 | 70 | 162 | 1.0 | 1.0 | 0.00 | 0.00 | 0.00 | 53 | 1006.3 |
| 20260504210513 | 70 | 70 | 2.0 | 3.0 | 0.00 | 0.00 | 0.00 | 52 | 1006.7 |
| 20260504210010 | 71 | 144 | 0.0 | 1.0 | 0.00 | 0.00 | 0.00 | 51 | 1006.6 |
| 20260504205508 | 71 | 348 | 3.0 | 6.0 | 0.00 | 0.00 | 0.00 | 51 | 1006.4 |
| 20260504205006 | 71 | 359 | 2.0 | 4.0 | 0.00 | 0.00 | 0.00 | 52 | 1006.2 |
| 20260504204504 | 71 | 11 | 2.0 | 3.0 | 0.00 | 0.00 | 0.00 | 51 | 1006.3 |
| 20260504204003 | 70 | 111 | 1.0 | 1.0 | 0.00 | 0.00 | 0.00 | 51 | 1006.3 |
| 20260504203500 | 70 | 354 | 3.0 | 4.0 | 0.00 | 0.00 | 0.00 | 51 | 1006.5 |
| 20260504202956 | 72 | 116 | 2.0 | 3.0 | 0.00 | 0.00 | 0.00 | 50 | 1006.6 |
| 20260504202452 | 72 | 155 | 1.0 | 2.0 | 0.00 | 0.00 | 0.00 | 49 | 1006.4 |
| 20260504201949 | 72 | 335 | 4.0 | 6.0 | 0.00 | 0.00 | 0.00 | 50 | 1006.5 |
| 20260504201447 | 72 | 350 | 0.0 | 0.0 | 0.00 | 0.00 | 0.00 | 50 | 1006.5 |
| 20260504200944 | 70 | 152 | 5.0 | 8.0 | 0.00 | 0.00 | 0.00 | 52 | 1006.6 |
| 20260504200441 | 70 | 106 | 2.0 | 3.0 | 0.00 | 0.00 | 0.00 | 50 | 1006.7 |
| 20260504195937 | 71 | 105 | 2.0 | 3.0 | 0.00 | 0.00 | 0.00 | 50 | 1006.7 |
| 20260504195433 | 71 | 272 | 0.0 | 1.0 | 0.00 | 0.00 | 0.00 | 51 | 1006.6 |
| 20260504194930 | 71 | 143 | 5.0 | 10.0 | 0.00 | 0.00 | 0.00 | 49 | 1006.8 |
| 20260504194426 | 73 | 288 | 3.0 | 6.0 | 0.00 | 0.00 | 0.00 | 51 | 1006.5 |
| 20260504193922 | 71 | 179 | 0.0 | 1.0 | 0.00 | 0.00 | 0.00 | 51 | 1006.5 |
| 20260504193419 | 71 | 165 | 9.0 | 16.0 | 0.00 | 0.00 | 0.00 | 49 | 1006.7 |
| 20260504192918 | 70 | 66 | 1.0 | 1.0 | 0.00 | 0.00 | 0.00 | 52 | 1006.6 |
| 20260504192415 | 72 | 259 | 1.0 | 2.0 | 0.00 | 0.00 | 0.00 | 52 | 1006.8 |
| 20260504191914 | 71 | 207 | 3.0 | 6.0 | 0.00 | 0.00 | 0.00 | 50 | 1006.6 |
| 20260504191411 | 73 | 183 | 6.0 | 15.0 | 0.00 | 0.00 | 0.00 | 50 | 1006.8 |
| 20260504190906 | 71 | 218 | 4.0 | 7.0 | 0.00 | 0.00 | 0.00 | 52 | 1006.6 |
| 20260504190402 | 71 | 158 | 6.0 | 8.0 | 0.00 | 0.00 | 0.00 | 54 | 1006.6 |
| 20260504185859 | 71 | 129 | 4.0 | 6.0 | 0.00 | 0.00 | 0.00 | 51 | 1007.2 |
| 20260504185356 | 70 | 91 | 2.0 | 4.0 | 0.00 | 0.00 | 0.00 | 53 | 1007.2 |
| 20260504184852 | 71 | 64 | 2.0 | 3.0 | 0.00 | 0.00 | 0.00 | 52 | 1007.3 |
| 20260504184348 | 70 | 211 | 6.0 | 9.0 | 0.00 | 0.00 | 0.00 | 53 | 1007.3 |
| 20260504183844 | 71 | 279 | 1.0 | 2.0 | 0.00 | 0.00 | 0.00 | 51 | 1007.3 |
| 20260504183342 | 70 | 244 | 0.0 | 0.0 | 0.00 | 0.00 | 0.00 | 54 | 1007.4 |
| 20260504182839 | 70 | 175 | 6.0 | 9.0 | 0.00 | 0.00 | 0.00 | 52 | 1007.6 |
| 20260504182337 | 69 | 344 | 1.0 | 3.0 | 0.00 | 0.00 | 0.00 | 55 | 1007.5 |
| 20260504181833 | 69 | 180 | 0.0 | 1.0 | 0.00 | 0.00 | 0.00 | 55 | 1007.7 |
| 20260504181331 | 69 | 99 | 1.0 | 3.0 | 0.00 | 0.00 | 0.00 | 54 | 1007.8 |
| 20260504180830 | 68 | 206 | 1.0 | 1.0 | 0.00 | 0.00 | 0.00 | 55 | 1007.7 |
| 20260504180328 | 68 | 143 | 9.0 | 11.0 | 0.00 | 0.00 | 0.00 | 56 | 1007.7 |
| 20260504175826 | 68 | 40 | 0.0 | 1.0 | 0.00 | 0.00 | 0.00 | 56 | 1007.9 |
| 20260504175322 | 69 | 295 | 1.0 | 3.0 | 0.00 | 0.00 | 0.00 | 55 | 1008.0 |
| 20260504174821 | 68 | 96 | 2.0 | 4.0 | 0.00 | 0.00 | 0.00 | 56 | 1007.9 |
| 20260504174317 | 67 | 60 | 3.0 | 7.0 | 0.00 | 0.00 | 0.00 | 56 | 1008.1 |
| 20260504173814 | 68 | 75 | 4.0 | 7.0 | 0.00 | 0.00 | 0.00 | 56 | 1008.1 |
| 20260504173311 | 68 | 184 | 2.0 | 2.0 | 0.00 | 0.00 | 0.00 | 58 | 1008.1 |
| 20260504172808 | 67 | 179 | 5.0 | 7.0 | 0.00 | 0.00 | 0.00 | 55 | 1008.2 |
| 20260504172305 | 67 | 146 | 2.0 | 3.0 | 0.00 | 0.00 | 0.00 | 55 | 1008.1 |
| 20260504171800 | 67 | 135 | 5.0 | 8.0 | 0.00 | 0.00 | 0.00 | 56 | 1008.4 |
| 20260504171258 | 67 | 355 | 6.0 | 10.0 | 0.00 | 0.00 | 0.00 | 57 | 1008.3 |
| 20260504170755 | 66 | 159 | 9.0 | 14.0 | 0.00 | 0.00 | 0.00 | 57 | 1008.5 |
| 20260504170252 | 66 | 132 | 7.0 | 11.0 | 0.00 | 0.00 | 0.00 | 58 | 1008.5 |
| 20260504160210 | 67 | 355 | 4.0 | 4.0 | 0.00 | 0.00 | 0.00 | 53 | 1009.3 |
| 20260504151138 | 66 | 317 | 2.0 | 3.0 | 0.00 | 0.00 | 0.00 | 54 | 1009.9 |
| 20260504150636 | 65 | 165 | 2.0 | 3.0 | 0.00 | 0.00 | 0.00 | 54 | 1009.6 |
| 20260504150132 | 65 | 82 | 4.0 | 6.0 | 0.00 | 0.00 | 0.00 | 52 | 1010.1 |
| 20260504141101 | 62 | 93 | 2.0 | 3.0 | 0.00 | 0.00 | 0.00 | 54 | 1010.1 |
| 20260504140558 | 62 | 145 | 1.0 | 2.0 | 0.00 | 0.00 | 0.00 | 53 | 1010.0 |
| 20260504130522 | 58 | 59 | 2.0 | 3.0 | 0.00 | 0.00 | 0.00 | 55 | 1010.0 |
| 20260504110409 | 50 | 168 | 1.0 | 1.0 | 0.00 | 0.00 | 0.00 | 76 | 1010.7 |
| 20260504100326 | 49 | 214 | 0.0 | 0.0 | 0.00 | 0.00 | 0.00 | 72 | 1010.8 |
| 20260504081720 | 50 | 305 | 0.0 | 1.0 | 0.00 | 0.00 | 0.00 | 72 | 1011.4 |
| 20260504081216 | 50 | 182 | 1.0 | 1.0 | 0.00 | 0.00 | 0.00 | 66 | 1011.5 |
| 20260504080713 | 50 | 207 | 0.0 | 0.0 | 0.00 | 0.00 | 0.00 | 67 | 1011.6 |
| 20260504080209 | 50 | 162 | 1.0 | 1.0 | 0.00 | 0.00 | 0.00 | 65 | 1011.5 |
| 20260504070137 | 50 | 261 | 0.0 | 0.0 | 0.00 | 0.00 | 0.00 | 61 | 1011.6 |
| 20260504050526 | 48 | 248 | 0.0 | 0.0 | 0.00 | 0.00 | 0.00 | 63 | 1012.0 |
| 20260504050022 | 48 | 250 | 0.0 | 0.0 | 0.00 | 0.00 | 0.00 | 64 | 1011.7 |
| 20260504045519 | 48 | 254 | 0.0 | 0.0 | 0.00 | 0.00 | 0.00 | 65 | 1012.0 |
| 20260504045015 | 48 | 253 | 0.0 | 0.0 | 0.00 | 0.00 | 0.00 | 65 | 1012.0 |
| 20260504044513 | 48 | 249 | 0.0 | 0.0 | 0.00 | 0.00 | 0.00 | 65 | 1012.0 |
| 20260504044009 | 48 | 256 | 0.0 | 0.0 | 0.00 | 0.00 | 0.00 | 64 | 1012.0 |
| 20260504043506 | 49 | 256 | 0.0 | 0.0 | 0.00 | 0.00 | 0.00 | 62 | 1012.0 |
| 20260504043004 | 50 | 242 | 0.0 | 0.0 | 0.00 | 0.00 | 0.00 | 64 | 1011.9 |
| 20260504042500 | 50 | 230 | 0.0 | 0.0 | 0.00 | 0.00 | 0.00 | 59 | 1011.9 |
| 20260504041957 | 50 | 228 | 0.0 | 0.0 | 0.00 | 0.00 | 0.00 | 61 | 1011.9 |
| 20260504041453 | 50 | 235 | 0.0 | 0.0 | 0.00 | 0.00 | 0.00 | 65 | 1012.1 |
| 20260504040949 | 50 | 233 | 0.0 | 0.0 | 0.00 | 0.00 | 0.00 | 65 | 1012.0 |
| 20260504040447 | 50 | 269 | 0.0 | 0.0 | 0.00 | 0.00 | 0.00 | 65 | 1012.0 |
| 20260504035943 | 49 | 179 | 0.0 | 0.0 | 0.00 | 0.00 | 0.00 | 64 | 1012.1 |
| 20260504035441 | 49 | 247 | 0.0 | 0.0 | 0.00 | 0.00 | 0.00 | 69 | 1012.0 |
| 20260504034937 | 49 | 244 | 0.0 | 0.0 | 0.00 | 0.00 | 0.00 | 69 | 1011.9 |
| 20260504034435 | 48 | 269 | 0.0 | 0.0 | 0.00 | 0.00 | 0.00 | 69 | 1012.1 |
| 20260504033931 | 48 | 249 | 0.0 | 0.0 | 0.00 | 0.00 | 0.00 | 78 | 1011.9 |
| 20260504033429 | 48 | 246 | 0.0 | 0.0 | 0.00 | 0.00 | 0.00 | 78 | 1012.1 |
| 20260504032926 | 47 | 258 | 0.0 | 0.0 | 0.00 | 0.00 | 0.00 | 74 | 1012.1 |
| 20260504032423 | 47 | 254 | 0.0 | 0.0 | 0.00 | 0.00 | 0.00 | 78 | 1011.9 |
| 20260504031920 | 47 | 251 | 0.0 | 0.0 | 0.00 | 0.00 | 0.00 | 78 | 1012.2 |
| 20260504031417 | 46 | 254 | 0.0 | 0.0 | 0.00 | 0.00 | 0.00 | 77 | 1012.1 |
| 20260504030913 | 46 | 254 | 0.0 | 0.0 | 0.00 | 0.00 | 0.00 | 78 | 1012.1 |
| 20260504030410 | 46 | 238 | 0.0 | 0.0 | 0.00 | 0.00 | 0.00 | 78 | 1012.1 |
| 20260504025906 | 46 | 256 | 0.0 | 0.0 | 0.00 | 0.00 | 0.00 | 73 | 1012.0 |
| 20260504025403 | 46 | 265 | 0.0 | 0.0 | 0.00 | 0.00 | 0.00 | 74 | 1012.1 |
| 20260504024900 | 46 | 269 | 0.0 | 0.0 | 0.00 | 0.00 | 0.00 | 76 | 1011.9 |
| 20260504024356 | 46 | 253 | 0.0 | 0.0 | 0.00 | 0.00 | 0.00 | 74 | 1012.1 |
| 20260504023854 | 46 | 253 | 0.0 | 0.0 | 0.00 | 0.00 | 0.00 | 71 | 1012.2 |
| 20260504023350 | 46 | 264 | 0.0 | 0.0 | 0.00 | 0.00 | 0.00 | 68 | 1012.4 |
| 20260504022846 | 46 | 267 | 0.0 | 0.0 | 0.00 | 0.00 | 0.00 | 69 | 1012.2 |
| 20260504022343 | 46 | 265 | 0.0 | 0.0 | 0.00 | 0.00 | 0.00 | 70 | 1012.3 |
| 20260504021839 | 46 | 263 | 0.0 | 0.0 | 0.00 | 0.00 | 0.00 | 69 | 1012.3 |
| 20260504021337 | 46 | 266 | 0.0 | 0.0 | 0.00 | 0.00 | 0.00 | 69 | 1012.4 |
| 20260504020834 | 46 | 268 | 0.0 | 0.0 | 0.00 | 0.00 | 0.00 | 69 | 1012.2 |
| 20260504020331 | 46 | 263 | 0.0 | 0.0 | 0.00 | 0.00 | 0.00 | 67 | 1012.1 |
| 20260504015826 | 47 | 264 | 0.0 | 0.0 | 0.00 | 0.00 | 0.00 | 67 | 1012.2 |
| 20260504015323 | 47 | 276 | 0.0 | 0.0 | 0.00 | 0.00 | 0.00 | 65 | 1012.2 |
| 20260504014819 | 47 | 255 | 0.0 | 0.0 | 0.00 | 0.00 | 0.00 | 69 | 1011.9 |
| 20260504014315 | 48 | 256 | 0.0 | 0.0 | 0.00 | 0.00 | 0.00 | 68 | 1012.0 |
| 20260504013813 | 48 | 257 | 0.0 | 0.0 | 0.00 | 0.00 | 0.00 | 65 | 1012.1 |
| 20260504013311 | 48 | 259 | 0.0 | 0.0 | 0.00 | 0.00 | 0.00 | 65 | 1012.0 |
| 20260504012807 | 48 | 249 | 0.0 | 0.0 | 0.00 | 0.00 | 0.00 | 64 | 1012.1 |
| 20260504012305 | 49 | 257 | 0.0 | 0.0 | 0.00 | 0.00 | 0.00 | 61 | 1012.3 |
| 20260504011802 | 48 | 257 | 0.0 | 0.0 | 0.00 | 0.00 | 0.00 | 62 | 1012.1 |
| 20260504011258 | 49 | 253 | 0.0 | 0.0 | 0.00 | 0.00 | 0.00 | 62 | 1012.1 |
| 20260504010754 | 49 | 252 | 0.0 | 0.0 | 0.00 | 0.00 | 0.00 | 61 | 1012.2 |
| 20260504010250 | 49 | 251 | 0.0 | 0.0 | 0.00 | 0.00 | 0.00 | 62 | 1012.3 |
| 20260504005747 | 49 | 252 | 0.0 | 0.0 | 0.00 | 0.00 | 0.00 | 63 | 1012.0 |
| 20260504005244 | 50 | 252 | 0.0 | 0.0 | 0.00 | 0.00 | 0.00 | 61 | 1011.9 |
| 20260504004742 | 50 | 252 | 0.0 | 0.0 | 0.00 | 0.00 | 0.00 | 58 | 1012.1 |
| 20260504004239 | 51 | 253 | 0.0 | 0.0 | 0.00 | 0.00 | 0.00 | 56 | 1011.8 |
| 20260504003735 | 51 | 263 | 0.0 | 0.0 | 0.00 | 0.00 | 0.00 | 56 | 1011.8 |
| 20260504003232 | 51 | 279 | 0.0 | 0.0 | 0.00 | 0.00 | 0.00 | 53 | 1011.6 |
| 20260504002729 | 52 | 254 | 0.0 | 0.0 | 0.00 | 0.00 | 0.00 | 56 | 1012.0 |
| 20260504002225 | 53 | 237 | 0.0 | 0.0 | 0.00 | 0.00 | 0.00 | 53 | 1011.6 |
| 20260504001724 | 54 | 241 | 0.0 | 0.0 | 0.00 | 0.00 | 0.00 | 47 | 1011.9 |
| 20260504001220 | 54 | 238 | 0.0 | 0.0 | 0.00 | 0.00 | 0.00 | 51 | 1011.8 |
| 20260504000717 | 55 | 259 | 0.0 | 0.0 | 0.00 | 0.00 | 0.00 | 45 | 1012.0 |
| 20260504000214 | 55 | 217 | 0.0 | 0.0 | 0.00 | 0.00 | 0.00 | 43 | 1012.0 |
| 20260503235712 | 55 | 227 | 0.0 | 0.0 | 0.00 | 0.00 | 0.00 | 44 | 1011.9 |
| 20260503235209 | 55 | 295 | 0.0 | 0.0 | 0.00 | 0.00 | 0.00 | 43 | 1012.0 |
| 20260503234707 | 55 | 325 | 0.0 | 0.0 | 0.00 | 0.00 | 0.00 | 43 | 1011.8 |
| 20260503234205 | 56 | 236 | 0.0 | 0.0 | 0.00 | 0.00 | 0.00 | 41 | 1011.9 |
| 20260503233701 | 56 | 262 | 0.0 | 0.0 | 0.00 | 0.00 | 0.00 | 42 | 1011.9 |
| 20260503233157 | 56 | 216 | 0.0 | 0.0 | 0.00 | 0.00 | 0.00 | 42 | 1012.0 |
| 20260503232654 | 56 | 239 | 0.0 | 0.0 | 0.00 | 0.00 | 0.00 | 43 | 1012.0 |
| 20260503232151 | 56 | 252 | 0.0 | 0.0 | 0.00 | 0.00 | 0.00 | 41 | 1012.0 |
| 20260503231644 | 57 | 255 | 0.0 | 0.0 | 0.00 | 0.00 | 0.00 | 40 | 1012.0 |